CFS4204 KSMF-KRDD

Flight info

Callsign CFS4204
Flight time 0h 53m
Altitude 6000
Route RBL
Aircraft C408/M-SDFGRY/S

Departure

Time 2026-04-20 21:41
Airport Sacramento International Airport (KSMF)

Arrival

Time 2026-04-20 22:35
Airport Redding Municipal Airport (KRDD)
Time Latitude Longitude Altitude Speed Heading
2026-04-20 21:21 38.69269 -121.59464 34 ft 0 kts 136°
2026-04-20 21:34 38.69250 -121.59460 34 ft 7 kts 202°
2026-04-20 21:34 38.69242 -121.59495 34 ft 3 kts 309°
2026-04-20 21:35 38.69255 -121.59504 34 ft 0 kts 341°
2026-04-20 21:35 38.69267 -121.59509 34 ft 8 kts 341°
2026-04-20 21:35 38.69290 -121.59520 34 ft 0 kts 339°
2026-04-20 21:36 38.69301 -121.59561 34 ft 19 kts 262°
2026-04-20 21:36 38.69232 -121.59741 34 ft 20 kts 251°
2026-04-20 21:36 38.69228 -121.59875 34 ft 9 kts 320°
2026-04-20 21:36 38.69238 -121.59878 34 ft 0 kts
2026-04-20 21:37 38.69306 -121.59870 34 ft 16 kts 359°
2026-04-20 21:37 38.69438 -121.59868 34 ft 21 kts
2026-04-20 21:37 38.69592 -121.59864 34 ft 23 kts
2026-04-20 21:38 38.69759 -121.59863 34 ft 24 kts
2026-04-20 21:38 38.69932 -121.59859 34 ft 25 kts
2026-04-20 21:38 38.70110 -121.59856 34 ft 27 kts
2026-04-20 21:38 38.70300 -121.59853 33 ft 28 kts
2026-04-20 21:39 38.70498 -121.59849 33 ft 29 kts
2026-04-20 21:39 38.70676 -121.59846 33 ft 20 kts 358°
2026-04-20 21:39 38.70725 -121.59912 33 ft 11 kts 272°
2026-04-20 21:39 38.70723 -121.60024 33 ft 14 kts 267°
2026-04-20 21:40 38.70706 -121.60103 32 ft 9 kts 213°
2026-04-20 21:40 38.70643 -121.60110 33 ft 10 kts 179°
2026-04-20 21:40 38.70409 -121.60116 35 ft 64 kts 181°
2026-04-20 21:40 38.69774 -121.60121 49 ft 115 kts 181°
2026-04-20 21:41 38.68890 -121.60135 255 ft 136 kts 184°
2026-04-20 21:41 38.67925 -121.60178 644 ft 138 kts 185°
2026-04-20 21:41 38.66992 -121.60268 1146 ft 133 kts 183°
2026-04-20 21:41 38.66145 -121.59849 1527 ft 139 kts 130°
2026-04-20 21:42 38.65992 -121.58651 1957 ft 146 kts 77°
2026-04-20 21:42 38.66690 -121.57698 2292 ft 157 kts 26°
2026-04-20 21:42 38.67728 -121.57185 2682 ft 162 kts 23°
2026-04-20 21:42 38.68796 -121.56677 3050 ft 165 kts 22°
2026-04-20 21:43 38.69881 -121.56164 3420 ft 168 kts 23°
2026-04-20 21:43 38.70989 -121.55651 3786 ft 170 kts 23°
2026-04-20 21:43 38.72119 -121.55114 4002 ft 180 kts 22°
2026-04-20 21:43 38.73295 -121.54553 4268 ft 187 kts 22°
2026-04-20 21:44 38.74576 -121.54036 4337 ft 199 kts
2026-04-20 21:44 38.75875 -121.54446 4554 ft 191 kts 323°
2026-04-20 21:44 38.77004 -121.55342 4711 ft 194 kts 328°
2026-04-20 21:44 38.78251 -121.56027 4872 ft 196 kts 334°
2026-04-20 21:45 38.79527 -121.56649 5049 ft 196 kts 335°
2026-04-20 21:45 38.80805 -121.57281 5210 ft 198 kts 334°
2026-04-20 21:45 38.82087 -121.57928 5408 ft 198 kts 334°
2026-04-20 21:45 38.83369 -121.58576 5612 ft 198 kts 334°
2026-04-20 21:46 38.84647 -121.59221 5817 ft 198 kts 334°
2026-04-20 21:46 38.85932 -121.59868 5988 ft 200 kts 334°
2026-04-20 21:46 38.87253 -121.60538 5995 ft 207 kts 334°
2026-04-20 21:46 38.88607 -121.61220 6000 ft 210 kts 334°
2026-04-20 21:47 38.89972 -121.61909 6004 ft 212 kts 334°
2026-04-20 21:47 38.91349 -121.62604 5990 ft 212 kts 335°
2026-04-20 21:47 38.92723 -121.63299 5989 ft 213 kts 335°
2026-04-20 21:47 38.94082 -121.63986 5995 ft 213 kts 334°
2026-04-20 21:48 38.95455 -121.64681 5990 ft 211 kts 334°
2026-04-20 21:48 38.96825 -121.65374 5993 ft 212 kts 334°
2026-04-20 21:48 38.98193 -121.66067 5986 ft 211 kts 334°
2026-04-20 21:48 38.99563 -121.66761 5989 ft 211 kts 334°
2026-04-20 21:49 39.00933 -121.67456 5998 ft 212 kts 334°
2026-04-20 21:49 39.02304 -121.68151 6000 ft 212 kts 334°
2026-04-20 21:49 39.03675 -121.68847 5998 ft 213 kts 334°
2026-04-20 21:49 39.05054 -121.69547 5995 ft 213 kts 335°
2026-04-20 21:50 39.06431 -121.70245 5992 ft 213 kts 335°
2026-04-20 21:50 39.07811 -121.70947 5996 ft 214 kts 335°
2026-04-20 21:50 39.09201 -121.71653 5991 ft 214 kts 335°
2026-04-20 21:50 39.10578 -121.72353 5993 ft 213 kts 335°
2026-04-20 21:51 39.11959 -121.73054 5994 ft 214 kts 334°
2026-04-20 21:51 39.13344 -121.73760 5997 ft 214 kts 335°
2026-04-20 21:51 39.14726 -121.74463 5998 ft 213 kts 334°
2026-04-20 21:51 39.16105 -121.75165 6000 ft 213 kts 334°
2026-04-20 21:52 39.17482 -121.75867 5994 ft 213 kts 335°
2026-04-20 21:52 39.18865 -121.76572 6000 ft 214 kts 335°
2026-04-20 21:52 39.20251 -121.77279 5995 ft 214 kts 335°
2026-04-20 21:52 39.21634 -121.77984 5996 ft 214 kts 335°
2026-04-20 21:53 39.23019 -121.78690 6000 ft 214 kts 335°
2026-04-20 21:53 39.24413 -121.79405 5997 ft 217 kts 335°
2026-04-20 21:53 39.25818 -121.80119 6000 ft 216 kts 334°
2026-04-20 21:53 39.27204 -121.80827 5995 ft 213 kts 334°
2026-04-20 21:54 39.28585 -121.81533 5994 ft 213 kts 333°
2026-04-20 21:54 39.29966 -121.82240 5996 ft 214 kts 334°
2026-04-20 21:54 39.31335 -121.82940 5998 ft 214 kts 333°
2026-04-20 21:54 39.32720 -121.83650 5998 ft 215 kts 334°
2026-04-20 21:55 39.34107 -121.84360 5998 ft 214 kts 334°
2026-04-20 21:55 39.35497 -121.85072 5999 ft 215 kts 334°
2026-04-20 21:55 39.36892 -121.85787 6000 ft 216 kts 334°
2026-04-20 21:55 39.38293 -121.86505 6019 ft 216 kts 334°
2026-04-20 21:56 39.39688 -121.87220 6023 ft 215 kts 334°
2026-04-20 21:56 39.41076 -121.87933 6002 ft 215 kts 333°
2026-04-20 21:56 39.42470 -121.88649 6002 ft 216 kts 333°
2026-04-20 21:56 39.43867 -121.89366 5999 ft 216 kts 333°
2026-04-20 21:57 39.45259 -121.90080 6003 ft 215 kts 333°
2026-04-20 21:57 39.46652 -121.90797 6000 ft 216 kts 333°
2026-04-20 21:57 39.48046 -121.91514 5997 ft 215 kts 333°
2026-04-20 21:57 39.49435 -121.92228 6003 ft 216 kts 333°
2026-04-20 21:58 39.50826 -121.92944 6000 ft 214 kts 333°
2026-04-20 21:58 39.52210 -121.93657 6001 ft 214 kts 333°
2026-04-20 21:58 39.53595 -121.94372 5998 ft 214 kts 333°
2026-04-20 21:58 39.54980 -121.95084 5997 ft 213 kts 333°
2026-04-20 21:59 39.56362 -121.95798 6000 ft 215 kts 334°
2026-04-20 21:59 39.57758 -121.96518 6002 ft 217 kts 334°
2026-04-20 21:59 39.59166 -121.97244 6002 ft 217 kts 334°
2026-04-20 21:59 39.60568 -121.97967 6002 ft 217 kts 334°
2026-04-20 22:00 39.61971 -121.98692 6007 ft 217 kts 334°
2026-04-20 22:00 39.63376 -121.99418 6005 ft 217 kts 334°
2026-04-20 22:00 39.64781 -122.00144 6003 ft 217 kts 334°
2026-04-20 22:00 39.66163 -122.00859 6005 ft 217 kts 334°
2026-04-20 22:01 39.67583 -122.01593 6005 ft 217 kts 334°
2026-04-20 22:01 39.68965 -122.02309 6004 ft 217 kts 334°
2026-04-20 22:01 39.70366 -122.03035 6005 ft 217 kts 334°
2026-04-20 22:01 39.71767 -122.03760 6004 ft 217 kts 334°
2026-04-20 22:02 39.73172 -122.04490 5999 ft 218 kts 334°
2026-04-20 22:02 39.74587 -122.05223 6003 ft 219 kts 334°
2026-04-20 22:02 39.76007 -122.05959 6009 ft 220 kts 334°
2026-04-20 22:02 39.77431 -122.06698 6008 ft 220 kts 334°
2026-04-20 22:03 39.78856 -122.07437 6015 ft 220 kts 334°
2026-04-20 22:03 39.80277 -122.08176 6005 ft 219 kts 333°
2026-04-20 22:03 39.81697 -122.08914 6008 ft 219 kts 333°
2026-04-20 22:03 39.83112 -122.09649 6008 ft 219 kts 333°
2026-04-20 22:04 39.84527 -122.10385 6010 ft 219 kts 333°
2026-04-20 22:04 39.85936 -122.11118 6008 ft 218 kts 333°
2026-04-20 22:04 39.87339 -122.11849 6008 ft 217 kts 333°
2026-04-20 22:04 39.88743 -122.12581 6014 ft 217 kts 333°
2026-04-20 22:05 39.90151 -122.13314 6014 ft 218 kts 333°
2026-04-20 22:05 39.91560 -122.14049 6014 ft 219 kts 333°
2026-04-20 22:05 39.92974 -122.14787 6013 ft 220 kts 333°
2026-04-20 22:05 39.94397 -122.15529 6013 ft 220 kts 333°
2026-04-20 22:06 39.95814 -122.16269 6008 ft 220 kts 333°
2026-04-20 22:06 39.97237 -122.17011 6007 ft 220 kts 333°
2026-04-20 22:06 39.98653 -122.17751 6006 ft 220 kts 333°
2026-04-20 22:06 40.00070 -122.18492 6009 ft 219 kts 333°
2026-04-20 22:07 40.01488 -122.19233 6012 ft 219 kts 333°
2026-04-20 22:07 40.02897 -122.19970 6009 ft 218 kts 333°
2026-04-20 22:07 40.04305 -122.20707 6009 ft 218 kts 333°
2026-04-20 22:07 40.05712 -122.21444 6010 ft 218 kts 333°
2026-04-20 22:08 40.07120 -122.22183 6014 ft 218 kts 333°
2026-04-20 22:08 40.08531 -122.22921 6069 ft 218 kts 333°
2026-04-20 22:08 40.09948 -122.23610 6062 ft 219 kts 341°
2026-04-20 22:08 40.11471 -122.23848 6058 ft 221 kts 352°
2026-04-20 22:09 40.12997 -122.23781 6054 ft 221 kts 17°
2026-04-20 22:09 40.14439 -122.23122 6059 ft 220 kts 23°
2026-04-20 22:09 40.15878 -122.22411 6064 ft 221 kts 23°
2026-04-20 22:09 40.16841 -122.21929 6080 ft 228 kts 23°
2026-04-20 22:10 40.18337 -122.21158 6076 ft 233 kts 24°
2026-04-20 22:10 40.19846 -122.20384 6072 ft 230 kts 24°
2026-04-20 22:10 40.21324 -122.19657 6061 ft 227 kts 23°
2026-04-20 22:10 40.22766 -122.18943 6056 ft 218 kts 23°
2026-04-20 22:11 40.24185 -122.18239 6053 ft 217 kts 24°
2026-04-20 22:11 40.25584 -122.17565 6040 ft 211 kts 23°
2026-04-20 22:11 40.26937 -122.16911 6043 ft 205 kts 23°
2026-04-20 22:11 40.28266 -122.16268 6035 ft 202 kts 24°
2026-04-20 22:12 40.29616 -122.15616 6047 ft 210 kts 23°
2026-04-20 22:12 40.30997 -122.14946 6042 ft 212 kts 23°
2026-04-20 22:12 40.32377 -122.14286 6037 ft 211 kts 23°
2026-04-20 22:12 40.33760 -122.13632 6022 ft 212 kts 25°
2026-04-20 22:13 40.35154 -122.13027 6017 ft 210 kts 24°
2026-04-20 22:13 40.36548 -122.12433 6020 ft 210 kts 24°
2026-04-20 22:13 40.37945 -122.11850 6020 ft 211 kts 24°
2026-04-20 22:13 40.39331 -122.11283 6020 ft 208 kts 23°
2026-04-20 22:14 40.40707 -122.10697 6016 ft 208 kts 23°
2026-04-20 22:14 40.42082 -122.10106 6027 ft 209 kts 24°
2026-04-20 22:14 40.43478 -122.09514 5983 ft 210 kts 23°
2026-04-20 22:14 40.44864 -122.08925 5984 ft 209 kts 23°
2026-04-20 22:15 40.46248 -122.08340 5982 ft 209 kts 23°
2026-04-20 22:15 40.47636 -122.07749 5992 ft 210 kts 23°
2026-04-20 22:15 40.49005 -122.07156 5987 ft 208 kts 23°
2026-04-20 22:15 40.50379 -122.06559 5987 ft 209 kts 23°
2026-04-20 22:16 40.51784 -122.05956 5981 ft 211 kts 24°
2026-04-20 22:16 40.53158 -122.05366 5984 ft 210 kts 24°
2026-04-20 22:16 40.54554 -122.04772 5970 ft 207 kts 23°
2026-04-20 22:16 40.55895 -122.04207 5965 ft 204 kts 19°
2026-04-20 22:17 40.57318 -122.04033 5977 ft 207 kts
2026-04-20 22:17 40.58766 -122.04001 5973 ft 208 kts
2026-04-20 22:17 40.60216 -122.03976 5976 ft 208 kts
2026-04-20 22:17 40.61660 -122.03938 5973 ft 208 kts
2026-04-20 22:18 40.63105 -122.03905 5975 ft 206 kts
2026-04-20 22:18 40.64549 -122.03877 5978 ft 209 kts
2026-04-20 22:18 40.66006 -122.03849 5977 ft 209 kts
2026-04-20 22:18 40.67459 -122.03820 5973 ft 209 kts
2026-04-20 22:19 40.68922 -122.03804 5973 ft 212 kts
2026-04-20 22:19 40.70397 -122.03793 5972 ft 212 kts
2026-04-20 22:19 40.71879 -122.03777 5973 ft 214 kts
2026-04-20 22:19 40.73374 -122.03762 5972 ft 215 kts
2026-04-20 22:20 40.74866 -122.03751 5956 ft 212 kts
2026-04-20 22:20 40.76337 -122.03749 5976 ft 212 kts
2026-04-20 22:20 40.77826 -122.03745 5963 ft 215 kts
2026-04-20 22:20 40.79310 -122.03732 5964 ft 217 kts
2026-04-20 22:21 40.80817 -122.03723 5960 ft 215 kts
2026-04-20 22:21 40.82314 -122.03755 5975 ft 215 kts
2026-04-20 22:21 40.83817 -122.03757 5963 ft 215 kts
2026-04-20 22:21 40.85324 -122.03741 5965 ft 213 kts
2026-04-20 22:22 40.86735 -122.04070 5946 ft 206 kts 329°
2026-04-20 22:22 40.87683 -122.05323 5951 ft 184 kts 287°
2026-04-20 22:22 40.87863 -122.06862 5962 ft 162 kts 253°
2026-04-20 22:22 40.87587 -122.08242 5975 ft 153 kts 231°
2026-04-20 22:23 40.87009 -122.09418 5949 ft 155 kts 225°
2026-04-20 22:23 40.86430 -122.10607 5820 ft 151 kts 225°
2026-04-20 22:23 40.85879 -122.11807 5702 ft 154 kts 227°
2026-04-20 22:23 40.85335 -122.13050 5585 ft 158 kts 228°
2026-04-20 22:24 40.84781 -122.14331 5483 ft 161 kts 228°
2026-04-20 22:24 40.84230 -122.15606 5475 ft 158 kts 227°
2026-04-20 22:24 40.83683 -122.16859 5485 ft 157 kts 228°
2026-04-20 22:24 40.83130 -122.18118 5489 ft 163 kts 229°
2026-04-20 22:25 40.82554 -122.19435 5496 ft 168 kts 229°
2026-04-20 22:25 40.81965 -122.20786 5491 ft 167 kts 230°
2026-04-20 22:25 40.81391 -122.22114 5468 ft 164 kts 228°
2026-04-20 22:25 40.80833 -122.23397 5471 ft 160 kts 229°
2026-04-20 22:26 40.80290 -122.24636 5461 ft 151 kts 228°
2026-04-20 22:26 40.79777 -122.25834 5518 ft 155 kts 229°
2026-04-20 22:26 40.79195 -122.27096 5470 ft 158 kts 226°
2026-04-20 22:27 40.77651 -122.28863 5473 ft 142 kts 201°
2026-04-20 22:27 40.76756 -122.29298 5463 ft 136 kts 189°
2026-04-20 22:27 40.75802 -122.29452 5318 ft 140 kts 178°
2026-04-20 22:27 40.74820 -122.29444 5194 ft 141 kts 177°
2026-04-20 22:28 40.73849 -122.29447 5044 ft 139 kts 178°
2026-04-20 22:28 40.72882 -122.29452 4903 ft 139 kts 178°
2026-04-20 22:28 40.71915 -122.29448 4745 ft 139 kts 178°
2026-04-20 22:28 40.70944 -122.29454 4575 ft 139 kts 177°
2026-04-20 22:29 40.69971 -122.29456 4392 ft 141 kts 177°
2026-04-20 22:29 40.68990 -122.29458 4214 ft 142 kts 176°
2026-04-20 22:29 40.68011 -122.29458 4042 ft 139 kts 176°
2026-04-20 22:29 40.67100 -122.29462 3853 ft 127 kts 176°
2026-04-20 22:30 40.66227 -122.29463 3738 ft 125 kts 177°
2026-04-20 22:30 40.65352 -122.29463 3564 ft 127 kts 177°
2026-04-20 22:30 40.64461 -122.29464 3368 ft 129 kts 177°
2026-04-20 22:30 40.63566 -122.29464 3174 ft 129 kts 178°
2026-04-20 22:31 40.62667 -122.29467 2973 ft 130 kts 177°
2026-04-20 22:31 40.61763 -122.29467 2786 ft 127 kts 179°
2026-04-20 22:31 40.60879 -122.29468 2585 ft 128 kts 179°
2026-04-20 22:31 40.59981 -122.29471 2389 ft 130 kts 180°
2026-04-20 22:32 40.59071 -122.29472 2180 ft 129 kts 180°
2026-04-20 22:32 40.58207 -122.29474 1981 ft 121 kts 179°
2026-04-20 22:32 40.57373 -122.29474 1787 ft 119 kts 180°
2026-04-20 22:32 40.56542 -122.29476 1595 ft 121 kts 180°
2026-04-20 22:33 40.55700 -122.29478 1403 ft 120 kts 182°
2026-04-20 22:33 40.54880 -122.29480 1203 ft 115 kts 182°
2026-04-20 22:33 40.54088 -122.29475 1016 ft 113 kts 182°
2026-04-20 22:33 40.53310 -122.29487 829 ft 110 kts 183°
2026-04-20 22:34 40.52563 -122.29487 658 ft 107 kts 182°
2026-04-20 22:34 40.51823 -122.29486 519 ft 105 kts 182°
2026-04-20 22:34 40.51171 -122.29492 503 ft 76 kts 179°
2026-04-20 22:34 40.50722 -122.29493 504 ft 54 kts 179°
2026-04-20 22:35 40.50471 -122.29493 504 ft 28 kts 181°
2026-04-20 22:35 40.50275 -122.29496 504 ft 29 kts 180°
2026-04-20 22:35 40.50153 -122.29509 505 ft 8 kts 220°
2026-04-20 22:35 40.50155 -122.29555 504 ft 8 kts 313°
2026-04-20 22:36 40.50227 -122.29646 503 ft 18 kts 316°
2026-04-20 22:36 40.50319 -122.29763 501 ft 19 kts 314°
2026-04-20 22:36 40.50359 -122.29836 502 ft 9 kts 278°
2026-04-20 22:36 40.50336 -122.29909 500 ft 3 kts 162°
2026-04-20 22:37 40.50336 -122.29908 500 ft 0 kts 154°